TimeCDT,TemperatureF,Dew PointF,Humidity,Sea Level PressureIn,VisibilityMPH,Wind Direction,Wind SpeedMPH,Gust SpeedMPH,PrecipitationIn,Events,Conditions,WindDirDegrees,DateUTC
12:53 AM,37.9,36.0,93,29.95,10.0,ESE,3.5,-,N/A,,Clear,110,2012-03-23 05:53:00
1:53 AM,37.0,35.1,93,29.94,10.0,ESE,3.5,-,N/A,,Clear,110,2012-03-23 06:53:00
2:53 AM,34.0,32.0,92,29.95,10.0,Calm,Calm,-,N/A,,Clear,0,2012-03-23 07:53:00
3:18 AM,33.8,30.2,87,29.94,2.0,Calm,Calm,-,N/A,,Clear,0,2012-03-23 08:18:00
3:28 AM,35.6,33.8,93,29.95,9.0,Calm,Calm,-,N/A,,Clear,0,2012-03-23 08:28:00
3:53 AM,34.0,33.1,96,29.95,10.0,Calm,Calm,-,N/A,,Clear,0,2012-03-23 08:53:00
4:53 AM,33.1,32.0,96,29.96,6.0,Calm,Calm,-,N/A,,Clear,0,2012-03-23 09:53:00
5:03 AM,35.6,33.8,93,29.96,1.2,Calm,Calm,-,N/A,,Partly Cloudy,0,2012-03-23 10:03:00
5:05 AM,33.8,33.8,100,29.96,0.8,Calm,Calm,-,N/A,,Mist,0,2012-03-23 10:05:00
5:24 AM,32.0,30.2,93,29.96,2.0,East,3.5,-,N/A,,Mostly Cloudy,100,2012-03-23 10:24:00
5:31 AM,32.0,30.2,93,29.96,5.0,ESE,3.5,-,N/A,,Mostly Cloudy,110,2012-03-23 10:31:00
5:38 AM,33.8,30.2,87,29.97,6.0,Calm,Calm,-,N/A,,Partly Cloudy,0,2012-03-23 10:38:00
5:53 AM,34.0,32.0,92,29.98,7.0,Calm,Calm,-,N/A,,Clear,0,2012-03-23 10:53:00
6:02 AM,33.8,32.0,93,29.98,2.5,Calm,Calm,-,N/A,,Partly Cloudy,0,2012-03-23 11:02:00
6:04 AM,33.8,30.2,87,29.98,1.0,West,3.5,-,N/A,,Mist,270,2012-03-23 11:04:00
6:09 AM,30.2,30.2,100,29.97,0.5,West,3.5,-,N/A,Fog,Light Freezing Fog,270,2012-03-23 11:09:00
6:16 AM,30.2,28.4,93,29.97,0.2,Calm,Calm,-,N/A,Fog,Light Freezing Fog,0,2012-03-23 11:16:00
6:29 AM,32.0,30.2,93,29.97,1.0,Calm,Calm,-,N/A,,Mist,0,2012-03-23 11:29:00
6:39 AM,32.0,30.2,93,29.97,0.5,Calm,Calm,-,N/A,Fog,Fog,0,2012-03-23 11:39:00
6:53 AM,30.9,30.0,96,29.99,0.5,NW,3.5,-,N/A,Fog,Light Freezing Fog,310,2012-03-23 11:53:00
7:04 AM,32.0,30.2,93,29.97,0.2,WNW,3.5,-,N/A,Fog,Fog,300,2012-03-23 12:04:00
7:20 AM,33.8,33.8,100,29.98,0.2,Calm,Calm,-,N/A,Fog,Fog,0,2012-03-23 12:20:00
7:53 AM,35.1,34.0,96,29.99,0.2,Calm,Calm,-,N/A,Fog,Fog,0,2012-03-23 12:53:00
8:53 AM,39.2,39.2,100,29.97,0.2,NNW,4.6,-,N/A,Fog,Fog,330,2012-03-23 13:53:00
9:22 AM,39.2,37.4,93,29.99,0.2,Calm,Calm,-,N/A,Fog,Fog,0,2012-03-23 14:22:00
9:53 AM,39.9,39.9,100,30.02,0.2,West,5.8,-,N/A,Fog,Fog,280,2012-03-23 14:53:00
10:53 AM,43.0,42.1,97,30.02,0.2,Calm,Calm,-,N/A,Fog,Fog,0,2012-03-23 15:53:00
11:23 AM,46.4,44.6,93,30.00,0.8,Calm,Calm,-,N/A,,Mist,0,2012-03-23 16:23:00
11:31 AM,46.4,46.4,100,30.00,1.5,WNW,3.5,-,N/A,,Overcast,290,2012-03-23 16:31:00
11:41 AM,48.2,46.4,93,30.00,2.5,West,5.8,-,N/A,,Overcast,280,2012-03-23 16:41:00
11:48 AM,51.8,46.4,82,30.00,6.0,WNW,4.6,-,N/A,,Haze,300,2012-03-23 16:48:00
11:53 AM,52.0,46.9,83,30.01,7.0,WNW,3.5,-,N/A,,Mostly Cloudy,290,2012-03-23 16:53:00
12:00 PM,53.6,46.4,77,30.00,9.0,WNW,3.5,-,N/A,,Scattered Clouds,300,2012-03-23 17:00:00
12:53 PM,62.1,44.1,52,29.99,10.0,Variable,3.5,-,N/A,,Clear,0,2012-03-23 17:53:00
1:53 PM,66.0,43.0,43,29.96,10.0,SW,5.8,-,N/A,,Clear,230,2012-03-23 18:53:00
2:53 PM,68.0,42.8,40,29.94,10.0,Variable,3.5,-,N/A,,Clear,0,2012-03-23 19:53:00
3:53 PM,66.9,42.1,40,29.93,10.0,Calm,Calm,-,N/A,,Clear,0,2012-03-23 20:53:00
4:53 PM,69.1,43.0,39,29.92,10.0,WSW,8.1,-,N/A,,Clear,240,2012-03-23 21:53:00
5:53 PM,69.1,42.1,38,29.91,10.0,South,5.8,-,N/A,,Clear,190,2012-03-23 22:53:00
6:53 PM,66.0,43.0,43,29.93,10.0,South,8.1,-,N/A,,Clear,170,2012-03-23 23:53:00
7:53 PM,59.0,43.0,55,29.94,10.0,SSE,5.8,-,N/A,,Clear,160,2012-03-24 00:53:00
8:53 PM,54.0,42.1,64,29.93,10.0,South,3.5,-,N/A,,Clear,180,2012-03-24 01:53:00
9:53 PM,48.0,43.0,83,29.97,10.0,Calm,Calm,-,N/A,,Clear,0,2012-03-24 02:53:00
10:53 PM,46.9,39.0,74,29.97,10.0,Calm,Calm,-,N/A,,Clear,0,2012-03-24 03:53:00
11:53 PM,46.0,37.9,73,29.97,10.0,Calm,Calm,-,N/A,,Clear,0,2012-03-24 04:53:00